| time (UTC) | temp F | wind direction | speed MPH | gust MPH | rain 1hr in | rain 24hr in | rain mn in | humidity % | barometer mb |
| 20260504201548 | 45 | 241 | 2.0 | 9.0 | 0.00 | 0.00 | 0.00 | 57 | 1003.9 |
| 20260504200048 | 47 | 254 | 3.0 | 11.0 | 0.00 | 0.00 | 0.00 | 47 | 1003.7 |
| 20260504194550 | 47 | 259 | 4.0 | 12.0 | 0.00 | 0.00 | 0.00 | 43 | 1003.6 |
| 20260504193049 | 48 | 262 | 3.0 | 11.0 | 0.00 | 0.00 | 0.00 | 40 | 1003.8 |
| 20260504191545 | 49 | 259 | 2.0 | 10.0 | 0.00 | 0.00 | 0.00 | 37 | 1003.5 |
| 20260504184537 | 48 | 279 | 0.0 | 8.0 | 0.00 | 0.00 | 0.00 | 45 | 1004.0 |
| 20260504183036 | 47 | 330 | 1.0 | 6.0 | 0.00 | 0.00 | 0.00 | 47 | 1004.2 |
| 20260504181540 | 45 | 262 | 1.0 | 11.0 | 0.00 | 0.00 | 0.00 | 47 | 1004.3 |
| 20260504180034 | 41 | 249 | 4.0 | 25.0 | 0.00 | 0.00 | 0.00 | 64 | 1004.5 |
| 20260504174534 | 42 | 264 | 8.0 | 20.0 | 0.00 | 0.00 | 0.00 | 65 | 1004.7 |
| 20260504173035 | 44 | 246 | 5.0 | 15.0 | 0.00 | 0.00 | 0.00 | 61 | 1004.5 |
| 20260504171532 | 47 | 255 | 7.0 | 15.0 | 0.00 | 0.00 | 0.00 | 50 | 1004.4 |
| 20260504081533 | 31 | 355 | 0.0 | 0.0 | 0.00 | 0.00 | 0.00 | 67 | 1006.4 |
| 20260504050010 | 37 | 355 | 0.0 | 0.0 | 0.00 | 0.00 | 0.00 | 54 | 1007.2 |
| 20260504044514 | 38 | 355 | 0.0 | 0.0 | 0.00 | 0.00 | 0.00 | 54 | 1007.3 |
| 20260504043010 | 37 | 355 | 0.0 | 0.0 | 0.00 | 0.00 | 0.00 | 56 | 1007.5 |
| 20260504041508 | 38 | 355 | 0.0 | 0.0 | 0.00 | 0.00 | 0.00 | 54 | 1007.7 |
| 20260504040008 | 39 | 355 | 0.0 | 0.0 | 0.00 | 0.00 | 0.00 | 50 | 1007.7 |
| 20260504034508 | 40 | 355 | 0.0 | 0.0 | 0.00 | 0.00 | 0.00 | 48 | 1007.6 |
| 20260504033008 | 40 | 355 | 0.0 | 0.0 | 0.00 | 0.00 | 0.00 | 46 | 1007.6 |
| 20260504031507 | 41 | 355 | 0.0 | 0.0 | 0.00 | 0.00 | 0.00 | 45 | 1007.5 |
| 20260504030007 | 40 | 355 | 0.0 | 0.0 | 0.00 | 0.00 | 0.00 | 48 | 1007.4 |
| 20260504024506 | 40 | 355 | 0.0 | 0.0 | 0.00 | 0.00 | 0.00 | 50 | 1007.2 |
| 20260504023006 | 41 | 355 | 0.0 | 0.0 | 0.00 | 0.00 | 0.00 | 50 | 1007.1 |
| 20260504021505 | 42 | 355 | 0.0 | 0.0 | 0.00 | 0.00 | 0.00 | 50 | 1007.0 |
| 20260504020005 | 43 | 355 | 0.0 | 1.0 | 0.00 | 0.00 | 0.00 | 49 | 1007.1 |
| 20260504014504 | 44 | 355 | 0.0 | 2.0 | 0.00 | 0.00 | 0.00 | 48 | 1007.0 |
| 20260504013010 | 45 | 355 | 0.0 | 1.0 | 0.00 | 0.00 | 0.00 | 46 | 1006.9 |
| 20260504011503 | 46 | 290 | 0.0 | 5.0 | 0.00 | 0.00 | 0.00 | 43 | 1006.8 |
| 20260504010004 | 49 | 314 | 0.0 | 3.0 | 0.00 | 0.00 | 0.00 | 37 | 1006.8 |
| 20260504004504 | 50 | 285 | 0.0 | 3.0 | 0.00 | 0.00 | 0.00 | 33 | 1006.6 |
| 20260504003001 | 51 | 275 | 0.0 | 5.0 | 0.00 | 0.00 | 0.00 | 31 | 1006.5 |
| 20260504001501 | 52 | 299 | 0.0 | 1.0 | 0.00 | 0.00 | 0.00 | 31 | 1006.7 |
| 20260504000101 | 52 | 299 | 0.0 | 2.0 | 0.00 | 0.00 | 0.00 | 31 | 1006.6 |
| 20260503234558 | 51 | 263 | 2.0 | 9.0 | 0.00 | 0.00 | 0.00 | 31 | 1006.8 |
| 20260503233103 | 52 | 259 | 3.0 | 10.0 | 0.00 | 0.00 | 0.00 | 31 | 1006.9 |
| 20260503231558 | 51 | 236 | 2.0 | 9.0 | 0.00 | 0.00 | 0.00 | 28 | 1006.9 |
| 20260503230058 | 54 | 265 | 2.0 | 7.0 | 0.00 | 0.00 | 0.00 | 25 | 1007.0 |
| 20260503224556 | 53 | 360 | 1.0 | 11.0 | 0.00 | 0.00 | 0.00 | 28 | 1006.8 |
| 20260503223056 | 55 | 272 | 2.0 | 10.0 | 0.00 | 0.00 | 0.00 | 23 | 1007.0 |
| 20260503221559 | 56 | 243 | 4.0 | 12.0 | 0.00 | 0.00 | 0.00 | 22 | 1006.8 |
| 20260503214551 | 56 | 254 | 2.0 | 9.0 | 0.00 | 0.00 | 0.00 | 22 | 1007.6 |
| 20260503213049 | 55 | 258 | 4.0 | 12.0 | 0.00 | 0.00 | 0.00 | 22 | 1007.9 |
| 20260503211547 | 54 | 290 | 3.0 | 13.0 | 0.00 | 0.00 | 0.00 | 23 | 1008.0 |
| 20260503210053 | 54 | 262 | 5.0 | 11.0 | 0.00 | 0.00 | 0.00 | 22 | 1008.2 |
| 20260503204558 | 55 | 360 | 1.0 | 11.0 | 0.00 | 0.00 | 0.00 | 22 | 1008.3 |
| 20260503203042 | 55 | 296 | 1.0 | 12.0 | 0.00 | 0.00 | 0.00 | 25 | 1008.4 |